[[{"header":{"parameterUnit":"m.s-1","parameterCategory":2,"la1":30.2991,"la2":30.254,"lo1":-89.0895,"lo2":-89.0444,"dy":0.0017,"dx":0.0017,"nx":28,"ny":28,"refTime":"2023-10-16T03:00:00:Z","depth":"0","parameterNumber":2,"parameterNumberName":"U-component_of_CURRENTS"},"data":[0,0,0,0,0,0,0,0,0,0,0,0,0,0,0,0,0,0,0,0,0,0,0,0,0,0,0,0,0,0,0,0,0,0,0,0,0,0,0,0,0,0,0,0,0,0,0,0,0,0,0,0,0,0,0,0,0,0,0.2294,0.2294,0,0.2327,0.2328,0.2328,0.2361,0.2362,0.2362,0.2363,0.2332,0.2331,0.233,0,0,0,0,0,0,0,0,0,0,0,0,0,0.2273,0.2273,0.2293,0.2294,0.2295,0.2327,0.2328,0.2328,0.2361,0.2362,0.2363,0.2363,0.2333,0.2331,0.233,0,0,0,0,0,0,0,0,0,0,0,0,0,0.2291,0.2273,0.2293,0.2316,0.2319,0.2327,0.2328,0.2328,0.2361,0.2362,0.2363,0.2364,0.2333,0.2331,0.2329,0.23,0,0,0.2323,0.2322,0,0,0,0,0,0,0,0,0.229,0.2291,0.2312,0.2315,0.2317,0.2342,0.231,0.2316,0.2361,0.2343,0.2363,0.2364,0.233,0.2328,0.2332,0.2299,0.2297,0.2323,0.2322,0.2321,0.232,0,0,0,0,0,0,0,0.2288,0.229,0.2305,0.2313,0.2316,0.233,0.2333,0.2311,0.2329,0.2345,0.2348,0.2354,0.2331,0.2334,0.2331,0.2297,0.2323,0.2321,0.232,0.2319,0.2264,0.2264,0,0,0,0,0,0,0.2285,0.2289,0.2304,0.2307,0.2307,0.233,0.2333,0.2332,0.2331,0.2333,0.2353,0.2355,0.2337,0.2333,0.233,0.2314,0.2321,0.2319,0.2318,0.2264,0.2264,0.2264,0,0,0,0,0,0,0.2284,0.2286,0.2303,0.23,0.2304,0.2329,0.2328,0.2333,0.2338,0.2338,0.2338,0.2354,0.2337,0.2333,0.231,0.2312,0.2318,0.2316,0.2265,0.2264,0.2264,0.2268,0,0,0,0,0,0,0.2284,0.2285,0.2282,0.23,0.2304,0.2315,0.2327,0.2333,0.2341,0.2344,0.2338,0.2337,0.2338,0.2313,0.2308,0.2309,0.2315,0.2265,0.2264,0.2264,0.2269,0.2268,0.2268,0,0,0,0,0,0.2283,0.2281,0.2281,0.2283,0.2298,0.2315,0.2318,0.2339,0.234,0.2345,0.2334,0.2337,0.2307,0.231,0.2305,0.2306,0.2265,0.2265,0.2264,0.2269,0.2268,0.2268,0,0,0,0,0,0,0.2272,0.2284,0.2285,0.2287,0.2301,0.2321,0.2328,0.2334,0.233,0.2329,0.2323,0.2321,0.2311,0.2298,0.2302,0.2289,0.229,0.2288,0.2296,0.2295,0.2295,0.2376,0.2313,0,0,0,0,0,0.2266,0.2268,0.2281,0.2284,0.2288,0.2302,0.231,0.2322,0.2324,0.2325,0.2318,0.2308,0.2302,0.229,0.2287,0.2261,0.2334,0.2262,0.2261,0.2261,0.2323,0.2456,0.2475,0.2262,0.2262,0.2262,0,0,0.2264,0.2271,0.2272,0.2282,0.2292,0.2302,0.2309,0.2321,0.233,0.2317,0.2315,0.2307,0.2298,0.2288,0.2281,0.2275,0.2342,0.226,0.226,0.2324,0.2458,0.2479,0.2499,0.2261,0.2261,0.2262,0,0,0.2275,0.2264,0.2276,0.2281,0.2296,0.2301,0.2302,0.2315,0.2321,0.231,0.2314,0.232,0.2281,0.2301,0.2299,0.2292,0.2345,0.2265,0.2319,0.2444,0.2465,0.2485,0.254,0.2564,0.2255,0.2255,0.2255,0,0.2276,0.2288,0.2282,0.2294,0.2303,0.2299,0.2315,0.2314,0.2318,0.2335,0.2311,0.2329,0.2306,0.2339,0.2337,0.2298,0.2362,0.2317,0.2451,0.2472,0.2492,0.2545,0.2572,0.2255,0.2255,0.2255,0.2255,0,0.2302,0.2305,0.2311,0.2321,0.2324,0.2336,0.2334,0.2339,0.2332,0.2346,0.2377,0.2365,0.2396,0.2364,0.2345,0.2454,0.2447,0.2445,0.2464,0.2515,0.2564,0.2593,0.2255,0.2255,0.2255,0.2255,0,0,0.2328,0.2332,0.2333,0.2345,0.234,0.2352,0.2355,0.2382,0.2411,0.2409,0.2473,0.2459,0.2484,0.2489,0.247,0.2561,0.2707,0.2565,0.2571,0.2641,0.2958,0.2774,0.2787,0.2742,0.2748,0.2753,0.2913,0,0.2357,0.2391,0.2375,0.2396,0.2417,0.2402,0.2409,0.2426,0.2437,0.2489,0.2515,0.2553,0.2516,0.2535,0.2628,0.2699,0.2794,0.2662,0.2883,0.2889,0.274,0.2819,0.2627,0.2741,0.2941,0.2946,0.295,0,0.2401,0.2415,0.2448,0.2456,0.246,0.2462,0.2497,0.25,0.2555,0.2572,0.264,0.2664,0.2772,0.2742,0.2946,0.2868,0.2941,0.2991,0.2998,0.2869,0.2762,0.2734,0.2786,0.2675,0.2994,0.2991,0.2987,0,0.2463,0.2468,0.2499,0.2501,0.2502,0.2514,0.2511,0.254,0.2562,0.2648,0.2698,0.2814,0.2874,0.3027,0.3074,0.3058,0.3295,0.3278,0.3183,0.3167,0.3073,0.3038,0.3075,0.3485,0.3484,0.3484,0.3484,0,0.2524,0.2556,0.2529,0.2552,0.2579,0.2556,0.2596,0.2611,0.2656,0.2699,0.2757,0.2827,0.2967,0.3073,0.3153,0.3224,0.336,0.3241,0.3227,0.3052,0.3015,0.2966,0.2926,0.349,0.3489,0.3487,0.3486,0,0.2629,0.2606,0.2641,0.2626,0.2618,0.2641,0.2635,0.2666,0.2694,0.2766,0.2803,0.2894,0.2997,0.3079,0.3279,0.328,0.3271,0.3375,0.3103,0.3054,0.2837,0.2802,0.2817,0.2747,0.3346,0.3343,0.334,0,0.2705,0.273,0.2703,0.27,0.2697,0.2706,0.2708,0.2701,0.2725,0.279,0.2839,0.293,0.2957,0.3111,0.3128,0.3208,0.3149,0.308,0.3022,0.2831,0.2788,0.2707,0.2643,0.2886,0.288,0.2875,0.2871,0,0.2842,0.2815,0.2826,0.2795,0.2784,0.2772,0.2768,0.2784,0.277,0.2809,0.2827,0.2848,0.2901,0.2845,0.288,0.2924,0.2874,0.2976,0.2906,0.2547,0.2349,0.2266,0.2725,0.2826,0.2831,0.2834,0.2836,0.2838,0.293,0.2943,0.2898,0.2862,0.2846,0.2792,0.2743,0.2736,0.2718,0.2668,0.2758,0.2685,0.2615,0.2612,0.2621,0.2461,0.2566,0.2408,0.2419,0.2383,0.2203,0.2503,0.2491,0.2493,0.2495,0.2497,0.2499,0,0.2973,0.2951,0.2952,0.2857,0.2799,0.2782,0.2732,0.2633,0.2544,0.2547,0.2501,0.2331,0.2223,0.2161,0.2015,0.193,0.1907,0.1882,0.1775,0.1775,0.2163,0.2023,0.1751,0.1751,0.1751,0.1751,0.1751,0.1752,0.2977,0.2946,0.2905,0.2777,0.2719,0.2558,0.2489,0.2372,0.2317,0.2117,0.1975,0.194,0.1847,0.1696,0.1529,0.1507,0.1436,0.1326,0.1415,0.1698,0.1749,0.1798,0.1658,0.1314,0.1313,0.0932,0.0928,0.0926]},{"header":{"parameterUnit":"m.s-1","parameterCategory":2,"la1":30.2991,"la2":30.254,"lo1":-89.0895,"lo2":-89.0444,"dy":0.0017,"dx":0.0017,"nx":28,"ny":28,"refTime":"2023-10-16T03:00:00:Z","depth":"0","parameterNumber":3,"parameterNumberName":"V-component_of_CURRENTS"},"data":[0,0,0,0,0,0,0,0,0,0,0,0,0,0,0,0,0,0,0,0,0,0,0,0,0,0,0,0,0,0,0,0,0,0,0,0,0,0,0,0,0,0,0,0,0,0,0,0,0,0,0,0,0,0,0,0,0,0,-0.0626,-0.0627,0,-0.0764,-0.0766,-0.0768,-0.0859,-0.086,-0.086,-0.0861,-0.0872,-0.0872,-0.0872,0,0,0,0,0,0,0,0,0,0,0,0,0,-0.0513,-0.0514,-0.0625,-0.0627,-0.0629,-0.0764,-0.0766,-0.0768,-0.0859,-0.086,-0.0861,-0.0861,-0.0872,-0.0872,-0.0872,0,0,0,0,0,0,0,0,0,0,0,0,0,-0.0598,-0.0515,-0.0625,-0.069,-0.0697,-0.0764,-0.0766,-0.0769,-0.0859,-0.086,-0.0861,-0.0861,-0.0872,-0.0872,-0.0872,-0.0854,0,0,-0.0871,-0.0871,0,0,0,0,0,0,0,0,-0.0593,-0.0602,-0.0679,-0.0686,-0.0694,-0.0795,-0.0731,-0.079,-0.0859,-0.0798,-0.0861,-0.0862,-0.0833,-0.0836,-0.0863,-0.0854,-0.0855,-0.0871,-0.087,-0.087,-0.087,0,0,0,0,0,0,0,-0.0587,-0.0597,-0.0681,-0.068,-0.069,-0.0738,-0.075,-0.0744,-0.0808,-0.0804,-0.081,-0.0825,-0.0837,-0.0864,-0.0864,-0.0855,-0.0871,-0.087,-0.087,-0.087,-0.082,-0.0819,0,0,0,0,0,0,-0.0564,-0.0591,-0.0677,-0.0685,-0.0644,-0.0739,-0.0753,-0.0762,-0.0811,-0.082,-0.0824,-0.0828,-0.0864,-0.0864,-0.0864,-0.0801,-0.087,-0.087,-0.087,-0.0821,-0.082,-0.0819,0,0,0,0,0,0,-0.0561,-0.057,-0.0671,-0.0641,-0.0658,-0.0739,-0.075,-0.0764,-0.0791,-0.0827,-0.0834,-0.0834,-0.0864,-0.0865,-0.0848,-0.0803,-0.087,-0.087,-0.0823,-0.0821,-0.0819,-0.0701,0,0,0,0,0,0,-0.0557,-0.0568,-0.0566,-0.0639,-0.0658,-0.0702,-0.0749,-0.0767,-0.0798,-0.0805,-0.0838,-0.0841,-0.0865,-0.0848,-0.0848,-0.0804,-0.0869,-0.0824,-0.0822,-0.082,-0.0707,-0.0696,-0.0687,0,0,0,0,0,-0.0552,-0.0549,-0.0565,-0.0576,-0.0653,-0.0701,-0.0715,-0.0777,-0.0797,-0.0804,-0.082,-0.084,-0.0835,-0.0847,-0.0846,-0.0802,-0.0825,-0.0823,-0.082,-0.0711,-0.0698,-0.0687,0,0,0,0,0,0,-0.0511,-0.056,-0.0579,-0.0593,-0.0637,-0.0716,-0.0727,-0.0766,-0.079,-0.0784,-0.0821,-0.0824,-0.0797,-0.0817,-0.083,-0.0785,-0.0834,-0.0832,-0.0752,-0.0739,-0.073,-0.0642,-0.0869,0,0,0,0,0,-0.0495,-0.0498,-0.0558,-0.0568,-0.0581,-0.0649,-0.0675,-0.0712,-0.0745,-0.076,-0.0786,-0.0797,-0.0788,-0.0777,-0.0788,-0.0751,-0.0697,-0.0726,-0.0716,-0.0707,-0.0637,-0.0491,-0.0459,-0.081,-0.081,-0.0811,0,0,-0.0487,-0.0509,-0.0516,-0.0558,-0.0593,-0.06,-0.0666,-0.0693,-0.0689,-0.0749,-0.0743,-0.0764,-0.0774,-0.0744,-0.0732,-0.075,-0.0595,-0.0704,-0.0696,-0.0629,-0.0485,-0.0449,-0.0418,-0.0809,-0.0809,-0.0809,0,0,-0.0457,-0.0481,-0.0468,-0.0491,-0.0527,-0.0562,-0.0562,-0.0626,-0.0642,-0.0646,-0.0674,-0.0646,-0.068,-0.0647,-0.0638,-0.0569,-0.0553,-0.0605,-0.0464,-0.0325,-0.0293,-0.0263,-0.0206,-0.0172,-0.0589,-0.0589,-0.0589,0,-0.0438,-0.0428,-0.0474,-0.0462,-0.0461,-0.0534,-0.0509,-0.0539,-0.0591,-0.0547,-0.0628,-0.0574,-0.0614,-0.0488,-0.0491,-0.0536,-0.0482,-0.0509,-0.0303,-0.0273,-0.0244,-0.0192,-0.0156,-0.0583,-0.0584,-0.0584,-0.0585,0,-0.0398,-0.0386,-0.0377,-0.0372,-0.038,-0.0374,-0.0407,-0.0399,-0.043,-0.0436,-0.0352,-0.0394,-0.0333,-0.0372,-0.042,-0.0238,-0.0278,-0.0312,-0.0318,-0.02,-0.0157,-0.0121,-0.0574,-0.0576,-0.0578,-0.058,0,0,-0.0344,-0.0344,-0.0333,-0.0301,-0.0321,-0.0314,-0.0274,-0.0225,-0.0134,-0.019,-0.0048,-0.0077,-0.0066,-0.0053,-0.0093,0.0001,0.0178,-0.0068,-0.0064,0.0018,0.0453,0.0307,0.033,0.0193,0.0201,0.0207,0.0384,0,-0.0284,-0.0232,-0.0241,-0.0173,-0.0147,-0.0154,-0.0093,-0.005,-0.0026,0.0084,0.0103,0.0189,0.0046,0.0095,0.0174,0.0189,0.0288,0.0131,0.0304,0.0309,0.0192,0.0374,0.0292,0.0436,0.0418,0.0424,0.0428,0,-0.0227,-0.0191,-0.0123,-0.0032,-0.001,0.0026,0.0173,0.0217,0.0355,0.0392,0.0504,0.0508,0.0638,0.0489,0.0643,0.0552,0.0536,0.0523,0.053,0.0402,0.0235,0.0324,0.0501,0.0393,0.0483,0.0479,0.0475,0,-0.0166,-0.0091,-0.0022,-0.0007,0.0066,0.0142,0.0202,0.0327,0.0425,0.0616,0.0727,0.0859,0.0933,0.0984,0.0879,0.0814,0.1026,0.0935,0.08,0.0784,0.0758,0.0728,0.0892,0.1109,0.1108,0.1108,0.1107,0,-0.0107,-0.0049,0.0018,0.0046,0.019,0.0226,0.0407,0.049,0.0673,0.0841,0.09,0.1052,0.1068,0.1137,0.105,0.1023,0.117,0.0901,0.087,0.078,0.0751,0.0683,0.0629,0.1114,0.1113,0.1112,0.1111,0,-0.0097,-0.0059,0.0026,0.0144,0.0197,0.0293,0.0479,0.0632,0.0783,0.1015,0.1092,0.1256,0.134,0.1295,0.1363,0.1226,0.1153,0.1159,0.0993,0.094,0.0687,0.064,0.0831,0.0797,0.111,0.1108,0.1106,0,-0.0103,-0.0062,0.0076,0.0156,0.0203,0.0356,0.0489,0.0658,0.0816,0.1116,0.1247,0.1407,0.1487,0.15,0.1339,0.1236,0.1128,0.1062,0.0932,0.0739,0.0668,0.0635,0.0591,0.0924,0.0921,0.0918,0.0916,0,-0.01,-0.0054,0.0026,0.0188,0.0323,0.0485,0.0674,0.0805,0.1035,0.1213,0.1448,0.1542,0.1551,0.1424,0.1245,0.1138,0.0975,0.1006,0.0925,0.0666,0.0542,0.0467,0.0669,0.0895,0.0897,0.0899,0.09,0.0901,-0.0084,-0.0027,0.0101,0.0253,0.0408,0.0604,0.0725,0.0925,0.1141,0.1387,0.1502,0.1609,0.145,0.1205,0.1071,0.075,0.0827,0.0626,0.0622,0.0635,0.0515,0.0612,0.0707,0.0708,0.0709,0.071,0.0711,0,-0.0035,0.0047,0.0179,0.0369,0.0525,0.0612,0.0858,0.097,0.1167,0.1361,0.1502,0.1429,0.1195,0.0974,0.0584,0.0398,0.0362,0.0309,0.0292,0.0295,0.0499,0.0393,0.0281,0.0282,0.0282,0.0282,0.0282,0.0282,0.0014,0.0135,0.0203,0.0444,0.0572,0.0758,0.0876,0.1021,0.1161,0.1279,0.13,0.1337,0.1153,0.0598,0.021,0.0127,0.0054,0.0008,0.0026,0.015,0.0179,0.0207,0.0097,-0.0074,-0.0075,-0.0195,-0.0196,-0.0197]}],[{"header":{"parameterUnit":"m.s-1","parameterCategory":2,"la1":30.2991,"la2":30.254,"lo1":-89.0895,"lo2":-89.0444,"dy":0.0017,"dx":0.0017,"nx":28,"ny":28,"refTime":"2023-10-16T03:00:00:Z","depth":"2","parameterNumber":2,"parameterNumberName":"U-component_of_CURRENTS"},"data":[0,0,0,0,0,0,0,0,0,0,0,0,0,0,0,0,0,0,0,0,0,0,0,0,0,0,0,0,0,0,0,0,0,0,0,0,0,0,0,0,0,0,0,0,0,0,0,0,0,0,0,0,0,0,0,0,0,0,0.1746,0.1745,0,0.1683,0.1682,0.1681,0.1676,0.1676,0.1677,0.1678,0.1725,0.1725,0.1726,0,0,0,0,0,0,0,0,0,0,0,0,0,0.1745,0.1746,0.1746,0.1745,0.1745,0.1683,0.1682,0.1681,0.1676,0.1677,0.1677,0.1678,0.1724,0.1725,0.1726,0,0,0,0,0,0,0,0,0,0,0,0,0,0.1719,0.1746,0.1746,0.1735,0.1734,0.1683,0.1682,0.1681,0.1675,0.1677,0.1678,0.1679,0.1724,0.1725,0.1726,0.1707,0,0,0.1728,0.1728,0,0,0,0,0,0,0,0,0.1721,0.1719,0.1737,0.1736,0.1734,0.1689,0.1699,0.1695,0.1675,0.1696,0.1678,0.1679,0.1723,0.1724,0.1706,0.1709,0.1711,0.1728,0.1729,0.1729,0.1729,0,0,0,0,0,0,0,0.1723,0.1721,0.172,0.1737,0.1735,0.1693,0.1692,0.1697,0.1705,0.1695,0.1694,0.1689,0.1723,0.1705,0.1708,0.1712,0.1728,0.1729,0.1729,0.173,0.1794,0.1795,0,0,0,0,0,0,0.1738,0.1724,0.1722,0.1718,0.1731,0.1693,0.1691,0.1702,0.1703,0.1703,0.1688,0.1689,0.1703,0.1707,0.1709,0.1759,0.1729,0.173,0.173,0.1792,0.1794,0.1795,0,0,0,0,0,0,0.1738,0.1739,0.1724,0.1719,0.1715,0.1693,0.1704,0.17,0.1718,0.1696,0.1699,0.1715,0.1704,0.1708,0.174,0.1758,0.173,0.1731,0.1791,0.1793,0.1795,0.1813,0,0,0,0,0,0,0.1739,0.174,0.1743,0.1721,0.1716,0.1713,0.1702,0.1698,0.1711,0.1713,0.172,0.1723,0.1706,0.1739,0.174,0.1759,0.1731,0.1789,0.1792,0.1794,0.1811,0.1815,0.1819,0,0,0,0,0,0.1739,0.174,0.1744,0.1743,0.1724,0.1714,0.1708,0.1694,0.1712,0.1717,0.1728,0.1724,0.1755,0.174,0.1742,0.1761,0.1788,0.1791,0.1794,0.1809,0.1814,0.1819,0,0,0,0,0,0,0.1746,0.1738,0.1743,0.1743,0.174,0.1714,0.1711,0.1717,0.1726,0.1735,0.1735,0.1738,0.177,0.177,0.1754,0.1789,0.1773,0.1776,0.1784,0.1789,0.1793,0.1875,0.1732,0,0,0,0,0,0.1749,0.1749,0.1742,0.1747,0.1751,0.1743,0.1738,0.1732,0.1736,0.1742,0.1755,0.1768,0.1775,0.1789,0.1789,0.1812,0.1858,0.1829,0.1833,0.1836,0.1906,0.1979,0.1996,0.1804,0.1804,0.1804,0,0,0.1763,0.1749,0.1757,0.1748,0.1747,0.1756,0.1744,0.1745,0.1766,0.1747,0.1792,0.1783,0.1785,0.1799,0.1815,0.1808,0.1905,0.184,0.1842,0.1912,0.1984,0.2003,0.202,0.1806,0.1806,0.1806,0,0,0.1778,0.1778,0.1785,0.1784,0.1775,0.1768,0.1785,0.1783,0.18,0.1823,0.1818,0.1848,0.1848,0.1864,0.1868,0.191,0.1921,0.1887,0.1978,0.2045,0.2062,0.2078,0.2119,0.2139,0.1892,0.1892,0.1892,0,0.1783,0.1796,0.1786,0.179,0.1796,0.1792,0.1812,0.1821,0.1832,0.187,0.1848,0.1904,0.1893,0.1952,0.1954,0.1924,0.1953,0.1948,0.2053,0.207,0.2086,0.2124,0.2146,0.1893,0.1893,0.1893,0.1893,0,0.1805,0.1818,0.1826,0.1835,0.1843,0.1851,0.1869,0.19,0.192,0.1936,0.2005,0.1994,0.2051,0.202,0.1998,0.21,0.2077,0.2042,0.2041,0.2107,0.2142,0.2164,0.1895,0.1895,0.1894,0.1894,0,0,0.1795,0.1832,0.1833,0.1857,0.1864,0.1876,0.1932,0.1983,0.2051,0.2065,0.2163,0.2169,0.2195,0.221,0.2184,0.2234,0.2332,0.2194,0.2197,0.224,0.247,0.2172,0.2167,0.2304,0.2309,0.2313,0.2433,0,0.1809,0.1838,0.1851,0.1897,0.1923,0.1949,0.2006,0.2057,0.2104,0.2194,0.223,0.2295,0.2255,0.2281,0.2336,0.2333,0.24,0.2304,0.2401,0.2406,0.2136,0.2186,0.2044,0.2115,0.2455,0.2459,0.2461,0,0.1825,0.1833,0.1889,0.1949,0.1967,0.2002,0.2108,0.2155,0.2275,0.2319,0.242,0.245,0.2554,0.2492,0.2606,0.254,0.2548,0.2536,0.2539,0.2291,0.215,0.2114,0.2143,0.2499,0.2496,0.2493,0.249,0,0.1833,0.1866,0.1915,0.193,0.1995,0.2051,0.2097,0.2207,0.2284,0.2427,0.2503,0.2616,0.2676,0.2735,0.2707,0.2685,0.2791,0.2751,0.2508,0.2486,0.2406,0.2365,0.288,0.288,0.2879,0.2879,0.2879,0,0.1851,0.1909,0.1928,0.1957,0.2033,0.2072,0.2189,0.2262,0.2389,0.2493,0.2586,0.2672,0.2743,0.2789,0.278,0.2682,0.2862,0.2563,0.2509,0.2394,0.2353,0.2727,0.2707,0.2884,0.2883,0.2882,0.2881,0,0.1944,0.1939,0.2001,0.2037,0.2054,0.2128,0.2241,0.2343,0.2436,0.2583,0.264,0.2755,0.2774,0.2787,0.2838,0.2727,0.2687,0.2614,0.2439,0.2357,0.2339,0.232,0.2406,0.2397,0.2389,0.2383,0.2377,0,0.205,0.2067,0.2066,0.2104,0.2146,0.223,0.231,0.2381,0.2476,0.2609,0.2687,0.274,0.2696,0.2612,0.2488,0.2392,0.2514,0.2167,0.2084,0.2357,0.2298,0.2291,0.2282,0.201,0.2002,0.1996,0.199,0,0.2237,0.2201,0.2227,0.2245,0.2308,0.2361,0.2453,0.2488,0.2572,0.2621,0.2623,0.2568,0.2464,0.2228,0.2052,0.1987,0.2154,0.2014,0.2433,0.2071,0.197,0.1914,0.1924,0.1932,0.1937,0.1942,0.1945,0.1947,0.2395,0.2417,0.2378,0.2403,0.245,0.2445,0.2404,0.2454,0.2451,0.2387,0.2441,0.2241,0.2142,0.1734,0.163,0.1562,0.1691,0.1628,0.1658,0.1693,0.1544,0.1426,0.126,0.1262,0.1264,0.1265,0.1267,0,0.2538,0.2515,0.2549,0.2483,0.2458,0.2475,0.2462,0.2334,0.2182,0.2171,0.2025,0.1705,0.1464,0.1418,0.1207,0.1081,0.1183,0.1042,0.1228,0.1283,0.1333,0.1176,0.0791,0.0789,0.0788,0.0787,0,0,0.2615,0.261,0.2548,0.2455,0.2407,0.2269,0.2176,0.1991,0.1893,0.165,0.1505,0.1426,0.1386,0.1112,0.1013,0.09,0.1113,0.0853,0.1236,0.1517,0.1567,0.1655,0.1467,0,0,0,0,0]},{"header":{"parameterUnit":"m.s-1","parameterCategory":2,"la1":30.2991,"la2":30.254,"lo1":-89.0895,"lo2":-89.0444,"dy":0.0017,"dx":0.0017,"nx":28,"ny":28,"refTime":"2023-10-16T03:00:00:Z","depth":"2","parameterNumber":3,"parameterNumberName":"V-component_of_CURRENTS"},"data":[0,0,0,0,0,0,0,0,0,0,0,0,0,0,0,0,0,0,0,0,0,0,0,0,0,0,0,0,0,0,0,0,0,0,0,0,0,0,0,0,0,0,0,0,0,0,0,0,0,0,0,0,0,0,0,0,0,0,0.0415,0.0415,0,0.0441,0.0441,0.0441,0.0451,0.0451,0.0452,0.0452,0.0357,0.0355,0.0352,0,0,0,0,0,0,0,0,0,0,0,0,0,0.0321,0.0322,0.0415,0.0415,0.0416,0.0441,0.0441,0.0441,0.0451,0.0451,0.0452,0.0452,0.0358,0.0355,0.0352,0,0,0,0,0,0,0,0,0,0,0,0,0,0.0351,0.0323,0.0414,0.0428,0.043,0.0441,0.0441,0.0441,0.0451,0.0451,0.0452,0.0452,0.0359,0.0355,0.0351,0.0313,0,0,0.0338,0.0336,0,0,0,0,0,0,0,0,0.035,0.0354,0.0425,0.0427,0.0429,0.0448,0.0374,0.0394,0.0451,0.0437,0.0452,0.0453,0.0379,0.0373,0.0372,0.0309,0.0305,0.0338,0.0335,0.0333,0.0332,0,0,0,0,0,0,0,0.0348,0.0353,0.042,0.0426,0.0428,0.0415,0.042,0.0378,0.0399,0.0439,0.0441,0.0451,0.0379,0.0376,0.0369,0.0304,0.0338,0.0334,0.0331,0.033,0.0219,0.0219,0,0,0,0,0,0,0.0357,0.0351,0.0419,0.0421,0.0396,0.0417,0.0422,0.0437,0.0402,0.04,0.0451,0.0452,0.0383,0.0374,0.0366,0.0339,0.0333,0.0329,0.0327,0.022,0.0219,0.0219,0,0,0,0,0,0,0.0355,0.0363,0.0418,0.039,0.0397,0.0419,0.0435,0.0437,0.0426,0.0414,0.0408,0.0438,0.0383,0.0372,0.0311,0.0334,0.0327,0.0323,0.022,0.0219,0.0219,0.0272,0,0,0,0,0,0,0.0352,0.0362,0.037,0.0391,0.04,0.0431,0.0435,0.0438,0.0436,0.0436,0.04,0.0393,0.0383,0.0317,0.0307,0.0328,0.032,0.022,0.022,0.0219,0.027,0.0273,0.0275,0,0,0,0,0,0.0348,0.0365,0.037,0.0379,0.0412,0.0432,0.0434,0.0447,0.0434,0.0436,0.0393,0.0393,0.0307,0.0312,0.03,0.0322,0.0221,0.022,0.0219,0.0269,0.0272,0.0275,0,0,0,0,0,0,0.0316,0.0369,0.0375,0.0402,0.0417,0.0436,0.0438,0.0436,0.0405,0.0396,0.0366,0.0355,0.0325,0.0297,0.0304,0.0287,0.0273,0.0269,0.0315,0.0318,0.032,0.0368,0.0316,0,0,0,0,0,0.0316,0.0352,0.038,0.04,0.0404,0.0411,0.0416,0.0427,0.041,0.0398,0.0371,0.0337,0.0314,0.0292,0.0269,0.0233,0.0228,0.0244,0.0247,0.0249,0.0278,0.0269,0.0274,0.0216,0.0216,0.0216,0,0,0.0305,0.0343,0.0358,0.0397,0.0402,0.042,0.0414,0.0426,0.0437,0.0388,0.0369,0.034,0.0304,0.0287,0.0272,0.0264,0.0258,0.0248,0.0251,0.0279,0.0269,0.0275,0.028,0.0216,0.0216,0.0216,0,0,0.0308,0.0332,0.0359,0.0378,0.0407,0.0418,0.0417,0.0427,0.0425,0.0397,0.038,0.0358,0.0299,0.0305,0.0291,0.0283,0.0274,0.0272,0.032,0.031,0.0316,0.0321,0.031,0.0314,0.0271,0.0271,0.0271,0,0.0293,0.034,0.0363,0.0392,0.0417,0.0415,0.0438,0.0434,0.0423,0.0431,0.0396,0.0363,0.0321,0.0334,0.0334,0.0296,0.0282,0.0314,0.0317,0.0321,0.0326,0.0314,0.0317,0.0274,0.0273,0.0273,0.0273,0,0.0321,0.0354,0.0365,0.0414,0.0434,0.0456,0.0468,0.0474,0.0459,0.0467,0.0467,0.0416,0.0416,0.039,0.0351,0.0375,0.0353,0.0325,0.0318,0.0335,0.032,0.0323,0.0277,0.0276,0.0276,0.0275,0,0,0.0312,0.0376,0.0383,0.0417,0.0456,0.0483,0.0498,0.0534,0.057,0.0536,0.0585,0.0524,0.0525,0.0511,0.0476,0.0451,0.0447,0.0399,0.0397,0.0406,0.0423,0.0321,0.0314,0.0414,0.0415,0.0416,0.0398,0,0.0329,0.0395,0.0425,0.0481,0.0512,0.0537,0.0566,0.0598,0.0609,0.0652,0.0623,0.0648,0.0563,0.058,0.0541,0.0485,0.0458,0.0455,0.0392,0.0391,0.0311,0.0315,0.0331,0.0308,0.04,0.0401,0.0401,0,0.0356,0.0406,0.0461,0.0547,0.0563,0.0595,0.0679,0.0707,0.0761,0.0775,0.0799,0.0796,0.079,0.0708,0.0624,0.0623,0.0536,0.0469,0.0466,0.0363,0.0294,0.0305,0.0309,0.0405,0.0405,0.0405,0.0404,0,0.0365,0.044,0.0494,0.052,0.06,0.0637,0.0681,0.0744,0.0799,0.0877,0.0942,0.0923,0.0941,0.0834,0.0684,0.0668,0.0571,0.0537,0.0366,0.0358,0.0358,0.0347,0.0481,0.0481,0.0481,0.0482,0.0482,0,0.0393,0.0438,0.0504,0.0539,0.0623,0.0666,0.0763,0.081,0.0905,0.1003,0.1017,0.1086,0.097,0.0904,0.0746,0.0555,0.0619,0.0389,0.0349,0.0371,0.0362,0.0437,0.0432,0.0481,0.0481,0.0481,0.0481,0,0.0393,0.0432,0.0504,0.0594,0.0627,0.0686,0.0814,0.0892,0.0979,0.1118,0.1162,0.1213,0.1129,0.0976,0.0808,0.0641,0.0467,0.0378,0.0404,0.0366,0.0255,0.0253,0.0227,0.0224,0.022,0.0218,0.0216,0,0.0402,0.0435,0.0538,0.0588,0.0628,0.0724,0.0801,0.0909,0.1014,0.1186,0.1268,0.1263,0.1215,0.0929,0.0683,0.0409,0.04,0.0244,0.0206,0.0266,0.0231,0.0234,0.0236,0.0234,0.0233,0.0231,0.023,0,0.0419,0.0447,0.0509,0.0603,0.0685,0.0802,0.0929,0.1022,0.1175,0.128,0.1387,0.1353,0.1134,0.086,0.0503,0.0331,0.0288,0.02,0.0286,0.027,0.0264,0.0231,0.0235,0.0216,0.0218,0.0219,0.0219,0.022,0.0424,0.0463,0.0533,0.0634,0.0735,0.0874,0.0952,0.1089,0.1228,0.1357,0.1374,0.1288,0.1068,0.0559,0.034,0.0152,0.0148,0.0062,0.0072,0.0083,0.006,0.0046,-0.0046,-0.0046,-0.0046,-0.0046,-0.0046,0,0.042,0.0468,0.0565,0.0689,0.0806,0.086,0.1037,0.1095,0.1215,0.1284,0.1287,0.1027,0.0742,0.0527,0.0218,-0.0001,0.004,-0.0043,0.0068,0.008,0.0091,0.0075,-0.003,-0.003,-0.003,-0.003,0,0,0.0411,0.0488,0.0558,0.0736,0.0823,0.0934,0.1019,0.1086,0.1136,0.113,0.1079,0.096,0.0723,0.0499,0.0269,0.0127,0.0151,0.0098,0.0097,0.0265,0.0279,0.0152,0.0138,0,0,0,0,0]}],[{"header":{"parameterUnit":"m.s-1","parameterCategory":2,"la1":30.2991,"la2":30.254,"lo1":-89.0895,"lo2":-89.0444,"dy":0.0017,"dx":0.0017,"nx":28,"ny":28,"refTime":"2023-10-16T03:00:00:Z","depth":"4","parameterNumber":2,"parameterNumberName":"U-component_of_CURRENTS"},"data":[0,0,0,0,0,0,0,0,0,0,0,0,0,0,0,0,0,0,0,0,0,0,0,0,0,0,0,0,0,0,0,0,0,0,0,0,0,0,0,0,0,0,0,0,0,0,0,0,0,0,0,0,0,0,0,0,0,0,0.0351,0.0352,0,0.0405,0.0406,0.0407,0.0446,0.0446,0.0446,0.0446,0.0528,0.053,0.0532,0,0,0,0,0,0,0,0,0,0,0,0,0,0.0402,0.04,0.0351,0.0352,0.0352,0.0405,0.0406,0.0407,0.0446,0.0446,0.0446,0.0446,0.0528,0.053,0.0533,0,0,0,0,0,0,0,0,0,0,0,0,0,0.0412,0.04,0.0351,0.0376,0.0379,0.0405,0.0406,0.0407,0.0446,0.0446,0.0446,0.0446,0.0527,0.053,0.0533,0.0549,0,0,0.0542,0.0544,0,0,0,0,0,0,0,0,0.0411,0.041,0.0372,0.0375,0.0378,0.0417,0.0454,0.0455,0.0446,0.0423,0.0446,0.0446,0.0492,0.0498,0.0511,0.0553,0.0556,0.0543,0.0545,0.0546,0.0547,0,0,0,0,0,0,0,0.041,0.0409,0.0375,0.0373,0.0376,0.0426,0.0426,0.0455,0.0458,0.0425,0.0427,0.0429,0.0494,0.0508,0.0513,0.0558,0.0543,0.0545,0.0547,0.0549,0.0673,0.0674,0,0,0,0,0,0,0.0392,0.0407,0.0373,0.0377,0.0393,0.0424,0.0425,0.0406,0.0457,0.0465,0.0429,0.0431,0.0502,0.0509,0.0516,0.0601,0.0546,0.0549,0.0551,0.0671,0.0673,0.0675,0,0,0,0,0,0,0.0393,0.0388,0.0371,0.0393,0.0394,0.0422,0.0401,0.0407,0.0439,0.046,0.0468,0.0457,0.0503,0.0512,0.0557,0.0601,0.055,0.0553,0.067,0.0672,0.0674,0.0729,0,0,0,0,0,0,0.0393,0.0387,0.0378,0.0391,0.0392,0.0399,0.0401,0.0408,0.0438,0.0441,0.0486,0.0493,0.0503,0.0553,0.056,0.0605,0.0556,0.0668,0.0671,0.0673,0.0726,0.0733,0.0739,0,0,0,0,0,0.0395,0.0379,0.0377,0.0374,0.0374,0.04,0.0406,0.0429,0.0439,0.0458,0.0487,0.0492,0.0575,0.0556,0.0565,0.0612,0.0667,0.067,0.0673,0.0723,0.0732,0.0739,0,0,0,0,0,0,0.0396,0.0382,0.038,0.0359,0.0383,0.0406,0.0423,0.0441,0.0479,0.0485,0.0508,0.0517,0.0578,0.0582,0.056,0.0654,0.0623,0.0628,0.0658,0.0667,0.0673,0.0668,0.0558,0,0,0,0,0,0.0389,0.0379,0.038,0.0373,0.0379,0.0406,0.0422,0.0439,0.0468,0.0486,0.0518,0.0553,0.0595,0.0619,0.0651,0.0699,0.0693,0.0735,0.0741,0.0747,0.0749,0.08,0.0812,0.0685,0.0685,0.0685,0,0,0.039,0.0382,0.0376,0.0375,0.0392,0.0408,0.0418,0.0446,0.0473,0.0488,0.0543,0.058,0.0613,0.0671,0.0698,0.0682,0.0772,0.0751,0.0756,0.0755,0.0805,0.0817,0.0828,0.0687,0.0687,0.0687,0,0,0.0391,0.0377,0.0371,0.0391,0.0413,0.0425,0.0437,0.0469,0.0498,0.0548,0.0574,0.0639,0.0689,0.0733,0.0758,0.0822,0.0808,0.0832,0.0866,0.0916,0.0927,0.0936,0.0907,0.0913,0.0834,0.0834,0.0834,0,0.0386,0.0379,0.0381,0.0392,0.0407,0.0433,0.0446,0.048,0.0532,0.0572,0.057,0.0694,0.0723,0.0813,0.0832,0.0842,0.0834,0.0833,0.0925,0.0935,0.0944,0.0911,0.0918,0.0837,0.0837,0.0837,0.0836,0,0.0394,0.0394,0.04,0.041,0.0429,0.0451,0.0482,0.053,0.0567,0.0609,0.071,0.0759,0.0842,0.0862,0.0865,0.0955,0.0913,0.093,0.0904,0.096,0.0921,0.0927,0.0842,0.0841,0.084,0.0839,0,0,0.0365,0.039,0.0399,0.0412,0.0441,0.0461,0.0512,0.0573,0.0628,0.0699,0.0785,0.087,0.092,0.0951,0.0984,0.1016,0.1062,0.0995,0.0996,0.0962,0.1113,0.0996,0.099,0.1097,0.11,0.1102,0.1047,0,0.037,0.0381,0.0401,0.0437,0.0439,0.0491,0.0542,0.0611,0.0667,0.0761,0.0851,0.0942,0.0948,0.1004,0.1047,0.1085,0.1086,0.1071,0.1066,0.1064,0.0953,0.0997,0.1109,0.1051,0.1052,0.1053,0.1054,0,0.0367,0.0379,0.0394,0.0447,0.0459,0.0498,0.0589,0.0642,0.0771,0.0831,0.0944,0.1004,0.1117,0.1094,0.1175,0.1167,0.1135,0.1127,0.1126,0.1004,0.096,0.0993,0.1064,0.1063,0.1062,0.1062,0.1061,0,0.0331,0.0376,0.0387,0.0405,0.0469,0.052,0.0575,0.0677,0.0743,0.0891,0.0953,0.1088,0.1172,0.1198,0.119,0.12,0.1215,0.1239,0.108,0.1068,0.1164,0.1155,0.1244,0.1244,0.1244,0.1244,0.1245,0,0.0302,0.0318,0.0387,0.0399,0.0464,0.0517,0.0607,0.0686,0.0811,0.0896,0.1001,0.1071,0.1202,0.1225,0.1205,0.1152,0.1237,0.1081,0.1064,0.1181,0.1175,0.1165,0.1156,0.1242,0.1243,0.1243,0.1244,0,0.0234,0.0272,0.0305,0.0398,0.0439,0.0493,0.0627,0.0696,0.0807,0.092,0.0976,0.1102,0.1138,0.1165,0.1196,0.1159,0.1121,0.1047,0.111,0.1097,0.0929,0.0924,0.0921,0.0917,0.0913,0.091,0.0908,0,0.0181,0.0188,0.0301,0.0355,0.0403,0.0501,0.0573,0.0697,0.0756,0.0911,0.0952,0.103,0.1089,0.104,0.1068,0.1007,0.0971,0.094,0.0994,0.0921,0.0905,0.0906,0.0906,0.0902,0.0901,0.09,0.0899,0,0.0091,0.0148,0.0198,0.0322,0.0408,0.0494,0.0595,0.0632,0.0771,0.0858,0.0936,0.0966,0.0973,0.0996,0.092,0.0877,0.0993,0.0903,0.0912,0.0963,0.0898,0.0886,0.089,0.0887,0.0888,0.089,0.089,0,0.0045,0.0074,0.0178,0.0294,0.039,0.0473,0.0536,0.0621,0.0698,0.0843,0.0855,0.0914,0.0987,0.0917,0.0856,0.0808,0.0811,0.0808,0.0822,0.0835,0.0828,0.0735,0.066,0,0,0,0,0,0.0012,0.0059,0.0147,0.0287,0.0387,0.0471,0.0545,0.0605,0.0699,0.0738,0.0808,0.0808,0.0797,0.0805,0.0733,0.0767,0.0779,0.0677,0.0776,0.0818,0.0832,0.0829,0,0,0,0,0,0,-0.0018,0.0058,0.0126,0.0261,0.0371,0.0488,0.0544,0.0622,0.0635,0.0724,0.0705,0.0775,0.0739,0.0845,0.0735,0.0726,0.0772,0.0692,0.069,0.081,0.0823,0.0834,0.0836,0,0,0,0,0]},{"header":{"parameterUnit":"m.s-1","parameterCategory":2,"la1":30.2991,"la2":30.254,"lo1":-89.0895,"lo2":-89.0444,"dy":0.0017,"dx":0.0017,"nx":28,"ny":28,"refTime":"2023-10-16T03:00:00:Z","depth":"4","parameterNumber":3,"parameterNumberName":"V-component_of_CURRENTS"},"data":[0,0,0,0,0,0,0,0,0,0,0,0,0,0,0,0,0,0,0,0,0,0,0,0,0,0,0,0,0,0,0,0,0,0,0,0,0,0,0,0,0,0,0,0,0,0,0,0,0,0,0,0,0,0,0,0,0,0,0.0518,0.0518,0,0.0538,0.0539,0.0539,0.0565,0.0566,0.0566,0.0567,0.0544,0.0543,0.0542,0,0,0,0,0,0,0,0,0,0,0,0,0,0.044,0.0441,0.0518,0.0518,0.0519,0.0538,0.0539,0.0539,0.0565,0.0566,0.0566,0.0567,0.0544,0.0543,0.0542,0,0,0,0,0,0,0,0,0,0,0,0,0,0.0467,0.0442,0.0518,0.0535,0.0537,0.0538,0.0539,0.0539,0.0565,0.0566,0.0566,0.0567,0.0545,0.0543,0.0541,0.0514,0,0,0.0536,0.0536,0,0,0,0,0,0,0,0,0.0466,0.047,0.0532,0.0534,0.0536,0.0551,0.0503,0.0529,0.0565,0.0553,0.0567,0.0568,0.0543,0.0541,0.0542,0.0513,0.0512,0.0536,0.0535,0.0534,0.0534,0,0,0,0,0,0,0,0.0464,0.0469,0.0525,0.0533,0.0535,0.0521,0.0526,0.0508,0.0541,0.0554,0.0556,0.056,0.0543,0.0543,0.0541,0.0512,0.0536,0.0535,0.0534,0.0533,0.0484,0.0484,0,0,0,0,0,0,0.0467,0.0467,0.0524,0.0525,0.0504,0.0522,0.0528,0.0544,0.0542,0.0543,0.056,0.0562,0.0546,0.0543,0.0541,0.0528,0.0534,0.0533,0.0532,0.0484,0.0484,0.0484,0,0,0,0,0,0,0.0465,0.0472,0.0523,0.0497,0.0503,0.0523,0.0541,0.0544,0.0559,0.0547,0.0548,0.0572,0.0546,0.0543,0.0531,0.0526,0.0532,0.0531,0.0485,0.0484,0.0484,0.0489,0,0,0,0,0,0,0.0463,0.0472,0.0489,0.0498,0.0505,0.0531,0.0541,0.0544,0.056,0.0563,0.0558,0.0556,0.0547,0.0533,0.0529,0.0524,0.0529,0.0485,0.0485,0.0484,0.0489,0.0489,0.0489,0,0,0,0,0,0.046,0.0471,0.049,0.0497,0.0527,0.0531,0.0533,0.0548,0.056,0.0564,0.056,0.0557,0.0527,0.0532,0.0527,0.0521,0.0485,0.0485,0.0484,0.0489,0.0489,0.0489,0,0,0,0,0,0,0.0439,0.0476,0.0496,0.0517,0.053,0.0536,0.0541,0.0553,0.0555,0.0557,0.055,0.0547,0.0537,0.0526,0.0532,0.0506,0.0506,0.0505,0.0512,0.0512,0.0511,0.0483,0.0528,0,0,0,0,0,0.0445,0.0472,0.0494,0.0513,0.0519,0.0534,0.054,0.055,0.0551,0.0554,0.0556,0.0546,0.0527,0.0519,0.0506,0.0488,0.044,0.0482,0.0481,0.0481,0.0455,0.0372,0.0361,0.0482,0.0482,0.0482,0,0,0.0443,0.0467,0.0483,0.0512,0.0522,0.0526,0.0539,0.0548,0.0551,0.0547,0.0555,0.0547,0.0523,0.0506,0.05,0.0498,0.0426,0.048,0.048,0.0453,0.037,0.0357,0.0347,0.0481,0.0481,0.0481,0,0,0.0436,0.0472,0.0486,0.05,0.0521,0.0525,0.0531,0.0547,0.0555,0.0557,0.0552,0.0532,0.0527,0.0496,0.0479,0.0463,0.0429,0.0478,0.0448,0.0368,0.0357,0.0346,0.0286,0.027,0.0474,0.0474,0.0474,0,0.0432,0.0457,0.0486,0.0497,0.0502,0.0526,0.0523,0.0533,0.0546,0.0533,0.0562,0.0515,0.051,0.0448,0.0454,0.0459,0.0417,0.0454,0.0365,0.0354,0.0342,0.0283,0.0265,0.0474,0.0474,0.0474,0.0474,0,0.043,0.0454,0.0457,0.0486,0.049,0.0494,0.0507,0.0517,0.0533,0.0528,0.0495,0.0482,0.0446,0.0451,0.0452,0.0374,0.0373,0.0377,0.0363,0.033,0.0271,0.0252,0.0475,0.0475,0.0475,0.0475,0,0,0.0409,0.0449,0.0453,0.0464,0.0484,0.0486,0.0484,0.0471,0.0452,0.0467,0.0423,0.0403,0.0395,0.0373,0.0368,0.0307,0.0216,0.0315,0.0311,0.0249,0.0047,0.0114,0.01,0.0207,0.0204,0.0201,0.0043,0,0.0397,0.0418,0.0432,0.0439,0.0445,0.0457,0.0449,0.044,0.043,0.0401,0.0368,0.0337,0.0366,0.035,0.0291,0.0237,0.0163,0.0258,0.0093,0.0087,0.0145,0.0079,0.0189,0.0029,0.0024,0.0021,0.0019,0,0.0389,0.0404,0.0416,0.0419,0.0419,0.0425,0.0399,0.0394,0.0349,0.0337,0.0287,0.0268,0.0195,0.0227,0.0084,0.0147,0.0089,0.0044,0.0037,0.0075,0.0117,0.0064,-0.0016,-0.0013,-0.0011,-0.0009,-0.0006,0,0.0377,0.0387,0.0399,0.0408,0.0417,0.0414,0.0411,0.0375,0.0365,0.0295,0.0268,0.0175,0.0143,0.0045,-0.0004,0.0023,-0.0167,-0.0144,-0.0155,-0.015,-0.0164,-0.0151,-0.0287,-0.0287,-0.0287,-0.0286,-0.0286,0,0.0371,0.0382,0.0402,0.0421,0.0414,0.0413,0.0397,0.0375,0.0333,0.0303,0.0244,0.0193,0.0096,0.0003,-0.0059,-0.0153,-0.0214,-0.0191,-0.0201,-0.0153,-0.0137,-0.0177,-0.0162,-0.0292,-0.0291,-0.029,-0.0289,0,0.0381,0.04,0.0414,0.0422,0.0426,0.0429,0.0433,0.0414,0.0368,0.0323,0.0305,0.0194,0.0073,-0.0025,-0.019,-0.0207,-0.0315,-0.0338,-0.028,-0.0279,-0.0239,-0.0222,-0.0395,-0.0394,-0.0394,-0.0393,-0.0393,0,0.0392,0.0405,0.0431,0.0449,0.0466,0.0476,0.0481,0.045,0.0424,0.033,0.0297,0.0172,0.01,-0.0091,-0.0194,-0.0343,-0.0338,-0.0393,-0.0324,-0.0266,-0.0258,-0.0241,-0.0225,-0.0392,-0.0391,-0.0391,-0.0391,0,0.0392,0.0412,0.0432,0.0478,0.05,0.0512,0.051,0.0491,0.044,0.0402,0.0299,0.0202,0.0058,-0.0078,-0.0186,-0.0286,-0.0356,-0.0387,-0.0389,-0.0325,-0.0264,-0.0253,-0.0238,-0.0389,-0.0389,-0.039,-0.039,0,0.0389,0.0406,0.0442,0.0489,0.0514,0.052,0.0528,0.0493,0.0466,0.0363,0.033,0.0181,0.0092,-0.0052,-0.0157,-0.024,-0.0253,-0.0252,-0.0261,-0.0264,-0.0152,-0.005,-0.0151,0,0,0,0,0,0.0378,0.0404,0.0443,0.0481,0.0514,0.0537,0.0522,0.0518,0.0463,0.041,0.0376,0.0253,0.0095,-0.0003,-0.0077,-0.0153,-0.0276,-0.024,-0.028,-0.0378,-0.038,-0.0261,0,0,0,0,0,0,0.0353,0.0395,0.0433,0.0467,0.0504,0.0527,0.0526,0.0505,0.0462,0.0407,0.031,0.0273,0.0098,0.0149,-0.0065,-0.0098,-0.0122,-0.0323,-0.0324,-0.0376,-0.0378,-0.038,-0.0259,0,0,0,0,0]}]]